Location: Sternwarte ZA, Rosenfeld-Brittheim
(48.2889°N, 8.6789°E)
Time: 16:58:16
(UTC+01:00)

ISS - Pass Details

Date: 21 January 2020
Orbit: 415 x 421 km, 51.6° (Epoch: 18 January)

Event Time Altitude Azimuth Distance (km) Brightness Sun altitude
Rises 19:09:47 0° 220° (SW) 2,354 0.8 -20.2°
Reaches altitude 10° 19:11:59 10° 210° (SSW) 1,493 -0.5 -20.5°
Enters shadow 19:14:05 27° 179° (S) 840 -2.2 -20.9°
